Flag for Canada Weather past 2 weeks in Sherbrooke, Quebec, Canada

Now
25 °F

Sunny.


Feels Like: 15 °F
Forecast: N/A
Wind: 9 mph from Northwest

Location: Sherbrooke

Current Time: Mar 28, 2015 at 6:39:03 PM

Latest Report: Mar 28, 2015 at 6:00 PM


Visibility: 9 mi

Pressure: 29.95 "Hg

Humidity: 50%

Dew point: 9 °F

Location of SherbrookeLocation

Historic Weather in Sherbrooke — Graph

°F

Sherbrooke temperature yesterday

Maximum temperature yesterday: 34 °F (at 10:00 AM)
Minimum temperature yesterday: 25 °F (at 11:00 PM)
Average temperature yesterday: 32 °F

Past Weeks' High & Low Weather Summary

 TemperatureHumidityPressure
High46 °F (Mar 25, 4:00 PM)100% (Mar 14, 10:56 PM)30.46 "Hg (Mar 14, 10:56 PM)
Low-6 °F (Mar 20, 6:00 AM)21% (Mar 20, 2:00 PM)29.41 "Hg (Mar 17, 1:00 PM)
Average21 °F72%29.98 "Hg
* Reported Mar 13 4:00 PM — Mar 28 4:00 PM, Sherbrooke, Weather by CustomWeather, © 2015

Note: Actual official high and low records may vary slightly from our data, if they occured in-between our weather recording intervals... More about our weather records

Advertising

Sherbrooke weather history for previous 24 hours

 ConditionsComfort  
Time TempWeatherWind HumidityBarometerVisibility
4:00 PM
Sat, Mar 28
27 °FSunny.14 mph50%29.91 "Hg9 mi
3:00 PM27 °FSunny.13 mph50%29.91 "Hg9 mi
2:00 PM28 °FSunny.10 mph51%29.93 "Hg9 mi
1:00 PM27 °FSunny.8 mph50%29.94 "Hg9 mi
12:00 PM25 °FPartly sunny.7 mph54%29.96 "Hg9 mi
11:00 AM21 °FPartly sunny.5 mph58%29.97 "Hg9 mi
10:00 AM19 °FPartly sunny.8 mph63%29.98 "Hg9 mi
9:00 AM18 °FPartly sunny.6 mph62%29.96 "Hg9 mi
8:00 AM16 °FOvercast.8 mph67%29.96 "Hg9 mi
7:00 AM16 °FMostly cloudy.8 mph67%29.93 "Hg9 mi
6:00 AM18 °FOvercast.8 mph68%29.93 "Hg9 mi
5:00 AM18 °FOvercast.7 mph68%29.90 "Hg9 mi
4:00 AM19 °FOvercast.7 mph68%29.90 "Hg9 mi
3:00 AM19 °FPassing clouds.3 mph63%29.88 "Hg9 mi
2:00 AM21 °FClear.6 mph63%29.90 "Hg9 mi
1:00 AM23 °FClear.5 mph58%29.88 "Hg9 mi
12:00 AM25 °FClear.5 mph54%29.87 "Hg9 mi
11:00 PM
Fri, Mar 27
25 °FClear.2 mph69%29.85 "Hg9 mi
10:00 PM27 °FClear.2 mph69%29.84 "Hg9 mi
9:00 PM27 °FClear.5 mph74%29.84 "Hg9 mi
8:00 PM28 °FPassing clouds.5 mph69%29.83 "Hg9 mi
7:00 PM30 °FScattered clouds.5 mph64%29.79 "Hg9 mi
6:00 PM34 °FMostly cloudy.7 mph60%29.78 "Hg9 mi
Weather by CustomWeather, © 2015

See weather overviewHow to use our weather pages